Location: Bush Observatory
(40.2653°N, 94.3194°W)
Time: 17:49:28
(UTC-05:00)

Vanguard 1 - Visible Passes

Search period start: 25 October 2014 00:00
Search period end: 03 November 2014 23:00
Orbit: 652 x 3835 km, 34.2° (Epoch: 22 October)

Date Brightness Start Highest point End Pass type
(mag) Time Alt. Az. Time Alt. Az. Time Alt. Az.
28 Oct 12.6 06:36:16 10° S 06:39:36 13° SSE 06:42:23 10° SE visible
29 Oct 12.2 06:56:06 10° SSW 07:01:09 19° SSE 07:04:58 10° ESE visible
30 Oct 11.8 07:16:43 10° SW 07:22:41 25° SSE 07:26:55 10° ESE visible
31 Oct 12.8 05:18:36 10° S 05:23:24 15° SSE 05:27:11 10° SE visible
01 Nov 12.4 05:38:13 10° SSW 05:45:04 20° SSE 05:49:52 10° ESE visible
02 Nov 12.1 04:58:42 10° SSW 05:06:41 27° SSE 05:11:55 10° ESE visible
03 Nov 13.0 03:03:34 14° S 03:06:45 15° SSE 03:11:43 10° ESE visible
03 Nov 11.7 05:19:39 10° SW 05:28:16 33° SSE 05:33:38 10° ESE visible
